Flag for Germany Weather past 2 weeks in Alfeld (Leine), Lower Saxony, Germany

Now
55 °F

Clear.


Feels Like: 52 °F
Forecast: 40 / 50 °F
Wind: 12 mph from Southwest

Location: Braunschweig


UV Index: 0 (Low)

Visibility: 10 mi


Pressure: 29.83 "Hg

Humidity: 38%

Dew point: 30 °F

Location of Alfeld (Leine)Location

Historic Weather in Alfeld (Leine)

°F

Alfeld (Leine) temperature yesterday

Maximum temperature yesterday: 57 °F (at 7:20 PM)
Minimum temperature yesterday: 32 °F (at 6:50 AM)
Average temperature yesterday: 49 °F

Past Weeks' High & Low Weather Summary

 TemperatureHumidityPressure
High72 °F (Apr 3, 2:50 PM)100% (Apr 3, 6:50 AM)30.48 "Hg (Apr 3, 6:50 AM)
Low32 °F (Apr 16, 6:50 AM)33% (Apr 17, 2:50 PM)29.65 "Hg (Apr 3, 6:50 AM)
Average52 °F80%30.02 "Hg
* Reported Apr 2 9:20 PM — Apr 17 9:50 PM, Alfeld (Leine), Weather by CustomWeather, © 2014

Note: Actual official high and low records may vary slightly from our data, if they occured in-between our weather recording intervals... More about our weather records

Advertising

Historic Weather Conditions — Data for Previous 24 hours

 ConditionsComfort  
Time TempWeatherWind HumidityBarometerVisibility
9:50 PM
Apr 17
55 °FClear.9 mph41%29.86 "Hg10 mi
9:20 PM55 °FClear.9 mph38%29.89 "Hg10 mi
8:50 PM55 °FSunny.9 mph41%29.89 "Hg10 mi
8:20 PM57 °FSunny.8 mph36%29.92 "Hg10 mi
7:50 PM57 °FSunny.9 mph36%29.92 "Hg10 mi
6:50 PM59 °FSunny.13 mph36%29.95 "Hg10 mi
6:20 PM59 °FPassing clouds.9 mph39%29.95 "HgN/A
5:50 PM59 °FPassing clouds.15 mph34%29.98 "HgN/A
5:20 PM59 °FPassing clouds.12 mph36%29.98 "HgN/A
4:50 PM59 °FPassing clouds.10 mph36%30.04 "HgN/A
4:20 PM59 °FPassing clouds.13 mph36%30.04 "HgN/A
3:20 PM57 °FPassing clouds.13 mph33%30.09 "HgN/A
2:50 PM57 °FPassing clouds.12 mph33%30.09 "HgN/A
1:50 PM55 °FPassing clouds.13 mph38%30.15 "HgN/A
1:20 PM55 °FPassing clouds.13 mph38%30.18 "HgN/A
12:50 PM54 °FSunny.15 mph41%30.18 "Hg10 mi
12:20 PM54 °FPassing clouds.15 mph41%30.21 "HgN/A
11:50 AM54 °FPassing clouds.15 mph41%30.24 "HgN/A
11:20 AM54 °FPassing clouds.15 mph38%30.24 "HgN/A
10:50 AM52 °FSunny.15 mph41%30.24 "Hg10 mi
10:20 AM52 °FSunny.14 mph44%30.27 "Hg10 mi
9:50 AM50 °FSunny.8 mph50%30.27 "Hg10 mi
9:20 AM48 °FSunny.9 mph54%30.27 "Hg10 mi
8:50 AM46 °FSunny.7 mph53%30.27 "Hg10 mi
8:20 AM45 °FQuite cool.8 mph66%30.27 "HgN/A
7:50 AM37 °FSunny.8 mph100%30.30 "Hg10 mi
7:20 AM36 °FSunny.6 mph93%30.30 "Hg10 mi
6:50 AM34 °FClear.7 mph100%30.30 "Hg10 mi
Weather by CustomWeather, © 2014

See weather overview